FW8558 Weather Reports


time (UTC)temp
F
wind
direction
speed
knots
gust
knots
rain 1hr
in
rain 24hr
in
rain mn
in
humidity
%
barometer
mb
20260504100223 0 0.0 0.0 0.00 0.00 0.00 1010.4
20260504081616 43 106 12.2 13.0 0.00 0.00 0.00 65 1010.5
20260504081112 43 106 12.2 13.0 0.00 0.00 0.00 65 1010.6
20260504080609 43 106 12.2 13.0 0.00 0.00 0.00 65 1010.8
20260504080105 43 106 12.2 13.0 0.00 0.00 0.00 65 1010.3
20260504050421 42 102 9.6 17.4 0.00 0.00 0.00 73 1010.5
20260504045918 43 94 15.6 18.2 0.00 0.00 0.00 72 1010.4
20260504045414 43 96 12.2 18.2 0.00 0.00 0.00 70 1010.6
20260504044910 43 95 13.9 17.4 0.00 0.00 0.00 69 1010.4
20260504044408 44 94 15.6 19.1 0.00 0.00 0.00 69 1010.5
20260504043905 44 93 13.9 18.2 0.00 0.00 0.00 69 1010.5
20260504043402 44 89 13.9 18.2 0.00 0.00 0.00 69 1010.4
20260504042900 44 92 13.9 17.4 0.00 0.00 0.00 69 1010.4
20260504042355 44 90 13.9 19.1 0.00 0.00 0.00 70 1010.5
20260504041852 44 88 13.9 17.4 0.00 0.00 0.00 70 1010.5
20260504041348 44 89 14.8 17.4 0.00 0.00 0.00 70 1010.4
20260504040845 44 88 14.8 18.2 0.00 0.00 0.00 69 1010.4
20260504040342 44 91 12.2 16.5 0.00 0.00 0.00 69 1010.6
20260504035838 44 92 12.2 18.2 0.00 0.00 0.00 68 1010.5
20260504035336 44 91 13.0 17.4 0.00 0.00 0.00 70 1010.6
20260504034832 44 88 13.0 16.5 0.00 0.00 0.00 69 1010.8
20260504034330 45 95 13.0 17.4 0.00 0.00 0.00 68 1010.6
20260504033827 44 86 12.2 20.9 0.00 0.00 0.00 69 1010.5
20260504033325 44 90 13.0 16.5 0.00 0.00 0.00 69 1010.5
20260504032821 44 92 13.9 15.6 0.00 0.00 0.00 68 1010.9
20260504032319 45 94 11.3 17.4 0.00 0.00 0.00 67 1010.8
20260504031815 44 91 14.8 17.4 0.00 0.00 0.00 67 1010.8
20260504031313 44 94 9.6 18.2 0.00 0.00 0.00 68 1010.8
20260504030809 44 94 13.0 17.4 0.00 0.00 0.00 68 1010.8
20260504030306 44 89 13.9 18.2 0.00 0.00 0.00 67 1010.9
20260504025802 44 90 13.0 17.4 0.00 0.00 0.00 68 1010.6
20260504025259 44 90 13.0 17.4 0.00 0.00 0.00 68 1011.0
20260504024755 44 97 12.2 16.5 0.00 0.00 0.00 67 1010.8
20260504024252 43 98 12.2 16.5 0.00 0.00 0.00 67 1010.9
20260504023749 43 93 13.0 15.6 0.00 0.00 0.00 68 1010.8
20260504023246 41 92 15.6 16.5 0.00 0.00 0.00 71 1011.0
20260504022741 41 93 13.9 18.2 0.00 0.00 0.00 72 1011.0
20260504022238 41 91 14.8 19.1 0.00 0.00 0.00 72 1010.8
20260504021735 41 85 15.6 18.2 0.00 0.00 0.00 73 1011.0
20260504021232 41 90 13.9 17.4 0.00 0.00 0.00 71 1010.9
20260504020729 41 90 13.0 16.5 0.00 0.00 0.00 71 1010.8
20260504020226 41 89 13.9 17.4 0.00 0.00 0.00 71 1010.6
20260504015722 41 91 14.8 17.4 0.00 0.00 0.00 70 1010.9
20260504015218 42 96 15.6 20.0 0.00 0.00 0.00 70 1010.9
20260504014714 42 95 11.3 17.4 0.00 0.00 0.00 70 1010.9
20260504014211 42 97 12.2 17.4 0.00 0.00 0.00 69 1011.0
20260504013709 43 95 12.2 16.5 0.00 0.00 0.00 68 1010.9
20260504013206 42 88 13.9 19.1 0.00 0.00 0.00 68 1010.9
20260504012703 43 92 12.2 14.8 0.00 0.00 0.00 68 1010.5
20260504012201 43 89 13.9 14.8 0.00 0.00 0.00 68 1010.8
20260504011657 43 90 13.9 14.8 0.00 0.00 0.00 67 1010.5
20260504011154 43 92 13.9 14.8 0.00 0.00 0.00 67 1010.5
20260504010650 43 89 13.9 14.8 0.00 0.00 0.00 67 1010.5
20260504010145 43 92 13.9 14.8 0.00 0.00 0.00 66 1010.4
20260504005643 44 90 13.9 13.9 0.00 0.00 0.00 65 1010.5
20260504005139 44 92 13.9 14.8 0.00 0.00 0.00 65 1010.2
20260504004638 44 90 13.0 14.8 0.00 0.00 0.00 66 1010.3
20260504004134 44 92 12.2 14.8 0.00 0.00 0.00 65 1010.3
20260504003631 43 92 13.9 14.8 0.00 0.00 0.00 67 1010.1
20260504003127 43 93 13.9 14.8 0.00 0.00 0.00 66 1010.1
20260504002624 44 95 13.0 14.8 0.00 0.00 0.00 67 1010.0
20260504002122 43 91 13.9 14.8 0.00 0.00 0.00 67 1010.1
20260504001619 43 93 13.9 14.8 0.00 0.00 0.00 67 1009.9
20260504001115 43 93 13.9 14.8 0.00 0.00 0.00 67 1010.0
20260504000613 43 92 13.9 14.8 0.00 0.00 0.00 66 1010.2
20260504000110 44 94 13.9 14.8 0.00 0.00 0.00 65 1010.1
20260503235608 44 91 14.8 14.8 0.00 0.00 0.00 64 1009.9
20260503235105 44 88 13.0 14.8 0.00 0.00 0.00 64 1009.9
20260503234603 45 88 13.0 15.6 0.00 0.00 0.00 64 1009.9
20260503234100 45 92 11.3 14.8 0.00 0.00 0.00 62 1009.9
20260503233556 46 92 12.2 14.8 0.00 0.00 0.00 62 1009.9
20260503233052 46 92 13.0 15.6 0.00 0.00 0.00 61 1009.8
20260503232550 46 91 12.2 14.8 0.00 0.00 0.00 63 1009.9
20260503232047 46 96 13.0 17.4 0.00 0.00 0.00 62 1009.7
20260503231545 46 95 13.0 15.6 0.00 0.00 0.00 61 1009.8
20260503231041 47 95 11.3 14.8 0.00 0.00 0.00 61 1009.9
20260503230538 47 98 11.3 14.8 0.00 0.00 0.00 61 1009.9
20260503230036 47 85 11.3 15.6 0.00 0.00 0.00 62 1009.7
20260503225532 47 94 12.2 14.8 0.00 0.00 0.00 61 1009.8
20260503225027 47 92 12.2 14.8 0.00 0.00 0.00 62 1009.6
20260503224525 47 94 12.2 17.4 0.00 0.00 0.00 60 1009.8
20260503224023 47 100 12.2 18.2 0.00 0.00 0.00 60 1009.9
20260503223520 47 106 7.8 14.8 0.00 0.00 0.00 62 1009.9
20260503223016 47 101 11.3 16.5 0.00 0.00 0.00 61 1010.0
20260503222514 47 80 11.3 15.6 0.00 0.00 0.00 60 1010.0
20260503222012 47 96 11.3 18.2 0.00 0.00 0.00 59 1009.9
20260503221510 48 83 11.3 18.2 0.00 0.00 0.00 58 1009.8
20260503221007 48 79 11.3 14.8 0.00 0.00 0.00 58 1009.8
20260503220503 48 89 13.0 17.4 0.00 0.00 0.00 58 1009.7
20260503220000 48 94 11.3 19.1 0.00 0.00 0.00 56 1009.7
20260503215457 48 86 7.8 17.4 0.00 0.00 0.00 55 1009.6
20260503214954 48 96 12.2 16.5 0.00 0.00 0.00 54 1009.7
20260503214452 49 91 13.9 17.4 0.00 0.00 0.00 54 1009.6
20260503213949 49 90 7.0 16.5 0.00 0.00 0.00 53 1009.6
20260503213447 48 80 12.2 15.6 0.00 0.00 0.00 53 1009.2
20260503212943 49 68 15.6 18.2 0.00 0.00 0.00 52 1009.4
20260503212441 49 92 11.3 20.0 0.00 0.00 0.00 52 1009.3
20260503211938 49 46 11.3 17.4 0.00 0.00 0.00 51 1009.4
20260503211435 49 108 12.2 16.5 0.00 0.00 0.00 51 1009.3
20260503210930 50 110 7.8 16.5 0.00 0.00 0.00 49 1009.4
20260503210427 51 96 9.6 13.9 0.00 0.00 0.00 50 1009.3
20260503205922 50 97 9.6 16.5 0.00 0.00 0.00 48 1009.2
20260503205420 50 103 12.2 17.4 0.00 0.00 0.00 49 1009.2
20260503204916 50 77 9.6 14.8 0.00 0.00 0.00 49 1009.1
20260503204413 50 111 8.7 18.2 0.00 0.00 0.00 46 1009.2
20260503203910 50 97 11.3 14.8 0.00 0.00 0.00 48 1009.2
20260503203408 50 101 10.4 19.1 0.00 0.00 0.00 47 1008.8
20260503202904 50 71 13.0 15.6 0.00 0.00 0.00 46 1009.2
20260503202403 51 68 13.9 14.8 0.00 0.00 0.00 44 1008.8
20260503201901 51 97 11.3 19.1 0.00 0.00 0.00 43 1009.3
20260503201357 52 95 13.9 17.4 0.00 0.00 0.00 43 1009.2
20260503200855 50 82 11.3 17.4 0.00 0.00 0.00 43 1009.5
20260503200350 52 100 9.6 19.1 0.00 0.00 0.00 41 1009.0
20260503195848 51 78 9.6 17.4 0.00 0.00 0.00 42 1009.2
20260503195344 52 72 13.0 18.2 0.00 0.00 0.00 41 1009.4
20260503194842 53 93 12.2 18.2 0.00 0.00 0.00 41 1009.4
20260503194337 52 102 9.6 19.1 0.00 0.00 0.00 40 1009.2
20260503193834 53 98 13.0 15.6 0.00 0.00 0.00 44 1009.6
20260503193330 53 80 12.2 18.2 0.00 0.00 0.00 40 1009.9
20260503192826 51 90 10.4 14.8 0.00 0.00 0.00 42 1009.6
20260503192321 51 106 13.0 14.8 0.00 0.00 0.00 43 1009.7
20260503191818 52 107 9.6 15.6 0.00 0.00 0.00 42 1010.0
20260503191315 51 103 10.4 18.2 0.00 0.00 0.00 44 1009.9
20260503190812 50 115 9.6 14.8 0.00 0.00 0.00 44 1010.1
20260503190309 51 98 8.7 16.5 0.00 0.00 0.00 45 1010.0
20260503185806 49 95 11.3 17.4 0.00 0.00 0.00 42 1009.8
20260503185304 49 78 11.3 18.2 0.00 0.00 0.00 44 1009.9
20260503184801 50 81 11.3 14.8 0.00 0.00 0.00 44 1010.1
20260503184258 51 86 9.6 15.6 0.00 0.00 0.00 44 1010.2
20260503183754 49 85 10.4 15.6 0.00 0.00 0.00 45 1010.0
20260503183252 50 82 13.0 18.2 0.00 0.00 0.00 43 1010.1
20260503182749 50 82 9.6 14.8 0.00 0.00 0.00 44 1010.3
20260503182248 48 53 10.4 14.8 0.00 0.00 0.00 44 1010.3
20260503181744 49 93 11.3 19.1 0.00 0.00 0.00 45 1010.3
20260503181241 50 93 11.3 14.8 0.00 0.00 0.00 46 1010.3
20260503180738 50 74 12.2 15.6 0.00 0.00 0.00 46 1010.3
20260503180236 50 123 9.6 16.5 0.00 0.00 0.00 42 1010.2
20260503175732 50 93 7.8 15.6 0.00 0.00 0.00 47 1010.4
20260503175231 49 116 8.7 17.4 0.00 0.00 0.00 48 1010.3
20260503174726 50 98 8.7 15.6 0.00 0.00 0.00 48 1010.3
20260503174224 50 82 9.6 17.4 0.00 0.00 0.00 47 1010.5
20260503173719 48 65 15.6 17.4 0.00 0.00 0.00 48 1010.5
20260503173215 47 93 9.6 18.2 0.00 0.00 0.00 46 1010.8
20260503172712 47 95 11.3 19.1 0.00 0.00 0.00 48 1010.6
20260503172209 46 109 13.0 15.6 0.00 0.00 0.00 52 1010.6
20260503171706 46 102 9.6 15.6 0.00 0.00 0.00 52 1010.8
20260503171203 44 100 12.2 17.4 0.00 0.00 0.00 52 1011.0
20260503170700 45 99 13.0 16.5 0.00 0.00 0.00 51 1011.2
20260503170157 44 94 10.4 15.6 0.00 0.00 0.00 50 1010.8
20260503160118 42 90 10.4 19.1 0.00 0.00 0.00 57 1011.3
20260503150548 39 70 11.3 18.2 0.00 0.00 0.00 62 1011.2
20260503130938 39 97 11.3 19.1 0.00 0.00 0.00 71 1011.6
20260503130436 39 93 10.4 17.4 0.00 0.00 0.00 73 1011.3
20260503110326 0 0.0 0.0 0.00 0.00 0.00 1011.0